CW8917 Weather Reports


time (UTC)temp
C
wind
direction
speed
KPH
gust
KPH
rain 1hr
cm
rain 24hr
cm
rain mn
cm
humidity
%
barometer
mb
20260906233627 26 215 3.2 6.4 0.00 0.00 0.00 34 1010.5
20260906232618 26 213 4.8 9.7 0.00 0.00 0.00 34 1010.7
20260906231630 26 211 6.4 11.3 0.00 0.00 0.00 34 1010.8
20260906230621 27 225 4.8 11.3 0.00 0.00 0.00 33 1011.0
20260906225628 27 225 4.8 11.3 0.00 0.00 0.00 33 1011.1
20260906224640 27 214 4.8 17.7 0.00 0.00 0.00 33 1011.2
20260906223630 27 248 8.0 19.3 0.00 0.00 0.00 31 1011.2
20260906222620 27 207 8.0 17.7 0.00 0.00 0.00 32 1011.2
20260906221616 27 228 11.3 17.7 0.00 0.00 0.00 32 1011.3
20260906220648 28 223 9.7 16.1 0.00 0.00 0.00 31 1011.4
20260906215631 28 213 11.3 20.9 0.00 0.00 0.00 31 1011.3
20260906214642 28 223 12.9 25.7 0.00 0.00 0.00 31 1011.4
20260906213637 28 212 11.3 19.3 0.00 0.00 0.00 32 1011.4
20260906212627 27 221 12.9 29.0 0.00 0.00 0.00 32 1011.4
20260906211619 28 205 9.7 19.3 0.00 0.00 0.00 32 1011.4
20260906210651 28 224 9.7 17.7 0.00 0.00 0.00 31 1011.4
20260906205617 28 198 14.5 22.5 0.00 0.00 0.00 29 1011.6
20260906204649 28 225 12.9 19.3 0.00 0.00 0.00 29 1011.9
20260906203619 27 262 12.9 19.3 0.00 0.00 0.00 30 1011.9
20260906202650 27 215 8.0 12.9 0.00 0.00 0.00 27 1012.2
20260906201621 27 252 6.4 17.7 0.00 0.00 0.00 31 1012.5
20260906200616 27 233 11.3 19.3 0.00 0.00 0.00 31 1012.6
20260906195619 26 230 6.4 22.5 0.00 0.00 0.00 31 1012.7
20260906194630 26 231 12.9 22.5 0.00 0.00 0.00 30 1012.9
20260906193621 27 210 9.7 24.1 0.00 0.00 0.00 30 1012.8
20260906192616 27 207 11.3 22.5 0.00 0.00 0.00 30 1012.8
20260906191628 27 220 9.7 16.1 0.00 0.00 0.00 28 1012.9
20260906190619 27 243 12.9 22.5 0.00 0.00 0.00 28 1013.1
20260906185621 27 205 9.7 27.4 0.00 0.00 0.00 29 1013.1
20260906184616 27 202 12.9 20.9 0.00 0.00 0.00 27 1013.3
20260906183627 27 237 9.7 29.0 0.00 0.00 0.00 29 1013.4
20260906182617 27 267 12.9 24.1 0.00 0.00 0.00 29 1013.5
20260906181632 27 225 16.1 24.1 0.00 0.00 0.00 26 1013.6
20260906180625 27 259 14.5 25.7 0.00 0.00 0.00 26 1013.9
20260906175649 27 246 11.3 25.7 0.00 0.00 0.00 28 1014.1
20260906174617 26 228 12.9 25.7 0.00 0.00 0.00 27 1014.3
20260906173628 26 230 19.3 32.2 0.00 0.00 0.00 27 1014.5
20260906172622 26 259 11.3 32.2 0.00 0.00 0.00 29 1014.4
20260906171613 26 284 14.5 22.5 0.00 0.00 0.00 28 1014.5
20260906170622 26 211 12.9 25.7 0.00 0.00 0.00 30 1014.5
20260906165623 26 194 14.5 27.4 0.00 0.00 0.00 30 1014.6
20260906164615 25 250 16.1 30.6 0.00 0.00 0.00 31 1014.6
20260906163626 25 225 14.5 25.7 0.00 0.00 0.00 31 1014.6
20260906162617 25 226 9.7 16.1 0.00 0.00 0.00 33 1014.7
20260906161629 25 249 4.8 9.7 0.00 0.00 0.00 35 1014.7
20260906160624 23 215 4.8 11.3 0.00 0.00 0.00 37 1014.9
20260906155627 23 205 4.8 8.0 0.00 0.00 0.00 35 1014.9
20260906154618 22 302 0.0 4.8 0.00 0.00 0.00 35 1015.0
20260906153613 21 279 0.0 0.0 0.00 0.00 0.00 37 1015.0
20260906152645 20 279 0.0 1.6 0.00 0.00 0.00 40 1015.0
20260906151615 20 279 0.0 4.8 0.00 0.00 0.00 44 1015.0
20260906150626 19 9 1.6 3.2 0.00 0.00 0.00 45 1014.9
20260906145614 18 17 1.6 6.4 0.00 0.00 0.00 47 1014.9
20260906144625 17 338 1.6 4.8 0.00 0.00 0.00 50 1014.9
20260906143616 16 180 0.0 3.2 0.00 0.00 0.00 52 1014.9
20260906142627 15 175 0.0 6.4 0.00 0.00 0.00 57 1014.8
20260906141623 14 170 0.0 4.8 0.00 0.00 0.00 60 1014.8
20260906140613 13 170 0.0 9.7 0.00 0.00 0.00 60 1014.8
20260906135615 13 165 1.6 4.8 0.00 0.00 0.00 61 1014.7
20260906134627 12 165 1.6 6.4 0.00 0.00 0.00 58 1014.6
20260906133622 12 154 0.0 6.4 0.00 0.00 0.00 58 1014.4
20260906132612 12 217 0.0 4.8 0.00 0.00 0.00 58 1014.3
20260906131623 12 355 0.0 4.8 0.00 0.00 0.00 57 1014.2
20260906130618 12 92 0.0 3.2 0.00 0.00 0.00 59 1014.1
20260906125621 12 92 0.0 1.6 0.00 0.00 0.00 61 1014.1
20260906124651 11 92 1.6 9.7 0.00 0.00 0.00 63 1014.1
20260906123620 11 203 0.0 4.8 0.00 0.00 0.00 63 1014.0
20260906122651 12 203 3.2 6.4 0.00 0.00 0.00 61 1014.0
20260906121645 12 247 1.6 6.4 0.00 0.00 0.00 60 1014.1
20260906120614 13 14 0.0 6.4 0.00 0.00 0.00 57 1014.0
20260906115616 14 307 1.6 4.8 0.00 0.00 0.00 54 1014.1
20260906114627 14 175 0.0 4.8 0.00 0.00 0.00 50 1013.9
20260906113620 14 217 0.0 3.2 0.00 0.00 0.00 51 1013.9
20260906112631 15 217 0.0 4.8 0.00 0.00 0.00 51 1013.9
20260906111619 15 216 0.0 3.2 0.00 0.00 0.00 49 1013.9
20260906110630 14 216 0.0 1.6 0.00 0.00 0.00 50 1014.0
20260906105615 13 216 0.0 3.2 0.00 0.00 0.00 54 1013.9
20260906104626 13 216 0.0 4.8 0.00 0.00 0.00 56 1013.9
20260906103617 14 217 3.2 6.4 0.00 0.00 0.00 54 1013.8
20260906102611 15 276 0.0 4.8 0.00 0.00 0.00 52 1013.7
20260906101621 15 125 0.0 1.6 0.00 0.00 0.00 48 1013.7
20260906100651 15 125 0.0 3.2 0.00 0.00 0.00 46 1013.7
20260906095612 15 125 0.0 4.8 0.00 0.00 0.00 48 1013.7
20260906094620 15 113 0.0 3.2 0.00 0.00 0.00 49 1013.5
20260906093614 15 111 0.0 3.2 0.00 0.00 0.00 51 1013.5
20260906092623 15 111 0.0 0.0 0.00 0.00 0.00 50 1013.3
20260906091612 15 111 0.0 1.6 0.00 0.00 0.00 51 1013.3
20260906090644 15 111 0.0 1.6 0.00 0.00 0.00 49 1013.3
20260906085629 15 111 0.0 3.2 0.00 0.00 0.00 50 1013.2
20260906084620 15 111 0.0 1.6 0.00 0.00 0.00 50 1013.2
20260906083631 16 111 0.0 3.2 0.00 0.00 0.00 47 1013.1
20260906082640 16 111 0.0 3.2 0.00 0.00 0.00 46 1013.1
20260906081613 16 111 0.0 1.6 0.00 0.00 0.00 47 1013.2
20260906080621 16 111 0.0 1.6 0.00 0.00 0.00 45 1013.2
20260906075623 16 111 0.0 6.4 0.00 0.00 0.00 46 1013.2
20260906074614 16 235 1.6 4.8 0.00 0.00 0.00 46 1013.3
20260906073629 16 233 1.6 3.2 0.00 0.00 0.00 45 1013.3
20260906072620 16 233 0.0 4.8 0.00 0.00 0.00 46 1013.3
20260906071630 16 233 0.0 3.2 0.00 0.00 0.00 47 1013.1
20260906070624 16 233 0.0 4.8 0.00 0.00 0.00 47 1013.1
20260906065628 17 233 3.2 8.0 0.00 0.00 0.00 44 1013.2
20260906064620 17 163 1.6 9.7 0.00 0.00 0.00 41 1013.0
20260906063629 17 160 0.0 3.2 0.00 0.00 0.00 42 1013.1
20260906062622 17 160 0.0 3.2 0.00 0.00 0.00 40 1013.0
20260906061612 17 160 0.0 4.8 0.00 0.00 0.00 43 1013.1
20260906060629 17 160 1.6 4.8 0.00 0.00 0.00 44 1013.1
20260906055612 17 160 0.0 4.8 0.00 0.00 0.00 43 1013.1
20260906054622 17 160 0.0 3.2 0.00 0.00 0.00 42 1013.1
20260906053615 17 160 0.0 4.8 0.00 0.00 0.00 42 1013.0
20260906052646 18 157 0.0 3.2 0.00 0.00 0.00 42 1013.0
20260906051616 18 157 3.2 9.7 0.00 0.00 0.00 39 1013.0
20260906050627 19 141 0.0 1.6 0.00 0.00 0.00 37 1013.0
20260906045615 20 141 1.6 4.8 0.00 0.00 0.00 34 1013.0
20260906044646 21 141 0.0 6.4 0.00 0.00 0.00 33 1013.0
20260906043615 21 141 1.6 3.2 0.00 0.00 0.00 32 1013.0
20260906042627 21 140 1.6 9.7 0.00 0.00 0.00 32 1013.0
20260906041623 21 154 1.6 6.4 0.00 0.00 0.00 31 1012.9
20260906040614 21 140 3.2 6.4 0.00 0.00 0.00 33 1012.9
20260906035638 21 120 3.2 9.7 0.00 0.00 0.00 34 1012.9
20260906034628 21 156 1.6 4.8 0.00 0.00 0.00 35 1012.9
20260906033624 21 234 0.0 1.6 0.00 0.00 0.00 35 1012.7
20260906032614 21 234 1.6 4.8 0.00 0.00 0.00 36 1012.6
20260906031623 21 236 1.6 16.1 0.00 0.00 0.00 36 1012.5
20260906030612 22 219 1.6 6.4 0.00 0.00 0.00 37 1012.5
20260906025619 23 221 3.2 8.0 0.00 0.00 0.00 33 1012.3
20260906024628 26 88 4.8 8.0 0.00 0.00 0.00 23 1012.2
20260906023617 26 90 4.8 9.7 0.00 0.00 0.00 23 1012.1
20260906022628 26 90 4.8 9.7 0.00 0.00 0.00 24 1012.0
20260906021623 26 175 3.2 4.8 0.00 0.00 0.00 26 1012.1
20260906020613 27 175 1.6 4.8 0.00 0.00 0.00 25 1012.1
20260906015636 27 180 3.2 4.8 0.00 0.00 0.00 23 1012.2
20260906014624 28 180 3.2 4.8 0.00 0.00 0.00 21 1012.3
20260906013616 28 181 0.0 6.4 0.00 0.00 0.00 20 1012.4
20260906012645 28 200 0.0 3.2 0.00 0.00 0.00 19 1012.4
20260906011614 28 200 0.0 4.8 0.00 0.00 0.00 21 1012.5
20260906010624 28 200 3.2 6.4 0.00 0.00 0.00 22 1012.7
20260906005629 28 200 1.6 8.0 0.00 0.00 0.00 23 1012.6
20260906004618 28 214 4.8 9.7 0.00 0.00 0.00 23 1012.6
20260906003627 28 217 6.4 11.3 0.00 0.00 0.00 22 1012.5
20260906002616 29 232 3.2 8.0 0.00 0.00 0.00 24 1012.5
20260906001612 29 216 6.4 12.9 0.00 0.00 0.00 22 1012.5
20260906000623 29 213 6.4 9.7 0.00 0.00 0.00 20 1012.6
20260905235624 29 234 6.4 16.1 0.00 0.00 0.00 21 1012.6
20260905234615 29 211 8.0 19.3 0.00 0.00 0.00 20 1012.7